Regional Weather Roundup
Issued by NWS

Home | Current Version | Previous Version | Graphics & Text | Print | Product List | Glossary Off
Versions: 1 2 3 4 5 6 7 8 9 10 11 12 13 14 15 16 17 18 19 20 21 22 23 24 25 26 27 28 29 30 31 32 33 34 35 36 37 38 39 40 41 42 43 44 45 46 47 48 49 50

000
ASUS43 KDMX 220206
RWRIA

WEATHER ROUNDUP FOR IOWA
NATIONAL WEATHER SERVICE DES MOINES IA
800 PM CST TUE NOV 21 2017

NOTE: "FAIR" INDICATES FEW OR NO CLOUDS BELOW 12,000 FEET WITH NO
SIGNIFICANT WEATHER AND/OR OBSTRUCTIONS TO VISIBILITY.

* - THESE STATIONS ARE NOT NWS STATIONS...THUS NOT UNDER NWS
QUALITY CONTROL.  THEY ALSO DO NOT REPORT WEATHER SUCH
AS PRECIPITATION OR FOG.

IAZ001>003-012>014-020>022-031>034-043>046-220300-
   NORTHWEST IOWA

CITY           SKY/WX    TMP DP  RH WIND       PRES   REMARKS
CARROLL *      CLOUDY    23  12  63 NW13      30.33S WCI  11
CHEROKEE *     PTCLDY    23  10  59 NW9       30.38R WCI  13
DENISON *      CLOUDY    21  12  68 NW6G13    30.37S WCI  14
LE MARS *      CLOUDY    21  10  63 NW10      30.40R WCI  10
ORANGE CITY *  CLOUDY    19  12  73 NW10      30.37R WCI   8
SHELDON *      CLOUDY    19   9  63 NW10      30.35R WCI   8
SIOUX CITY     CLOUDY    23   9  55 N13       30.41R WCI  11
SPENCER        CLOUDY    17   8  67 NW10      30.35R WCI   5
STORM LAKE *   CLOUDY    21  10  63 NW12      30.34R WCI   9
$$

IAZ055>058-069>071-079>083-090>094-220300-
   SOUTHWEST IOWA

CITY           SKY/WX    TMP DP  RH WIND       PRES   REMARKS
ATLANTIC *     CLOUDY    23  14  68 NW9       30.35S WCI  13
AUDUBON *      CLOUDY    23  12  63 NW5       30.34S WCI  17
CLARINDA *     CLEAR     27  14  59 NW9       30.38S WCI  17
COUNCIL BLFS * CLOUDY    25  12  58 NW15G22   30.36S WCI  12
CRESTON *      CLEAR     23  14  68 NW9       30.34R WCI  13
HARLAN  *      CLOUDY    23  12  63 NW9       30.39S WCI  13
LAMONI         CLEAR     27  15  61 NW12      30.32R WCI  17
RED OAK *      CLOUDY    25  14  63 NW7       30.37S WCI  17
SHENANDOAH *   CLOUDY    25  14  63 NW5       30.40R WCI  19
$$

IAZ047>049-059>061-072>074-084-220300-
   CENTRAL IOWA

CITY           SKY/WX    TMP DP  RH WIND       PRES   REMARKS
AMES           CLEAR     25  13  60 N16       30.32R WCI  12
ANKENY *       CLEAR     27  12  54 N15       30.34R WCI  15
BOONE *        CLEAR     25  10  54 NW16G22   30.30S WCI  12
CHARITON *     CLEAR     27  14  59 NW15      30.32R WCI  15
DES MOINES     CLEAR     28  11  48 NW13G21   30.33R WCI  17
GRINNELL*      CLEAR     23  15  73 NW9       30.30R WCI  13
KNOXVILLE *    CLEAR     27  12  54 NW12      30.31R WCI  16
MARSHALLTOWN   CLEAR     23  14  68 NW13      30.29R WCI  11
NEWTON *       CLEAR     25  12  58 NW16      30.31R WCI  12
PELLA *        CLEAR     26  15  64 NW10      30.32R WCI  15
PERRY *          N/A     25  11  57 NW9       30.33S WCI  15
$$

IAZ004>006-015-016-023>025-035-036-220300-
   NORTH CENTRAL IOWA

CITY           SKY/WX    TMP DP  RH WIND       PRES   REMARKS
ALGONA *       CLEAR     21  12  68 NW7       30.32R WCI  13
CLARION *      CLEAR     19  12  73 NW9       30.31S WCI   9
ESTHERVILLE    CLEAR     19  10  68 NW14      30.33R WCI   6
FORT DODGE *   CLEAR     22  12  65 NW6       30.33R WCI  14
MASON CITY     CLEAR     19  10  68 NW9       30.30R WCI   8
FOREST CITY *    N/A     23  12  63 NW10      30.29R WCI  12
WEBSTER CITY * CLEAR     21  10  63 NW12      30.30S WCI   9
IOWA FALLS *     N/A     24  14  66 NW15      30.30S WCI  11
$$

IAZ007>011-017>019-026>030-037>042-050>054-066-220300-
   NORTHEAST IOWA

CITY           SKY/WX    TMP DP  RH WIND       PRES   REMARKS
CEDAR RAPIDS   CLEAR     23  16  74 NW12      30.26R WCI  12
CHARLES CITY * CLEAR     23  12  63 NW10      30.27S WCI  12
CLINTON *      CLEAR     23  17  78 W6        30.23R WCI  16
DECORAH *      CLEAR     23  14  68 VRB6      30.23R WCI  16
DUBUQUE        CLEAR     24  14  65 NW7       30.21R WCI  16
MONTICELLO *   CLEAR     27  16  63 NW9       30.24R WCI  17
OELWEIN *      CLEAR     23  16  74 NW16      30.25R WCI  10
WATERLOO       CLEAR     23  12  62 NW13      30.27R WCI  11
$$

IAZ064-065-067-068-078-220300-
   EAST CENTRAL IOWA

CITY           SKY/WX    TMP DP  RH WIND       PRES   REMARKS
DAVENPORT      CLEAR     26  18  71 NW10      30.25R WCI  16
IOWA CITY      CLEAR     29  16  58 NW9       30.29R WCI  20
MT. PLEASANT * CLEAR     28  17  63 NW8       30.28R WCI  20
MUSCATINE *    CLEAR     25  18  74 NW8       30.28R WCI  16
QUAD CITIES    CLEAR     29  17  61 NW12      30.23R WCI  19
$$

IAZ062-063-075>077-085>089-095>099-220300-
   SOUTHEAST IOWA

CITY           SKY/WX    TMP DP  RH WIND       PRES   REMARKS
BURLINGTON     CLEAR     29  19  66 NW10G20   30.26R WCI  20
FAIRFIELD *    CLEAR     27  16  63 NW14      30.28R WCI  15
FORT MADISON * CLEAR     27  18  69 NW5       30.27R WCI  21
KEOKUK *       CLEAR     28  19  69 NW5       30.27R WCI  23
OSKALOOSA *      N/A     26  16  66 NW15      30.30R WCI  13
OTTUMWA        CLEAR     26  15  63 NW13      30.29R WCI  15
WASHINGTON *   CLEAR     27  18  69 NW13      30.29R WCI  16
$$

ABBREVIATIONS USED IN REMARKS
   TC - TEMPERATURES IN CELSIUS
  WCI - WIND CHILL INDEX
   HX - HEAT INDEX
  VSB - VISIBILITY
$$





USA.gov is the U.S. government's official web portal to all federal, state and local government web resources and services.